RH
20 28 32 28 32 29 30 38 39 34 34 31 34 39 71 66 64 75 73 73 61 61 63 68 59 61 56 49 42 42 35 40 53 60 63 65 64 62 58 49 47 48 53 52
24 32 26 24 29 28 30 33 36 35 36 35 37 40 54 72 70 77 75 73 61 64 61 63 66 59 54 47 40 44 39 34 45 55 58 60 61 62 60 47 50 49 52 46
29 24 23 25 25 28 30 33 34 35 25 32 25 26 56 68 79 83 70 65 58 56 46 56 63 53 49 45 39 42 42 35 35 50 60 61 63 62 62 50 45 47 49 49
26 21 23 26 26 27 32 28 26 28 28 34 22 35 26 69 89 87 78 79 64 58 43 62 64 50 45 42 38 42 46 41 34 44 53 57 53 61 61 56 44 45 49 53
31 29 28 28 25 25 30 25 28 27 28 28 28 31 27 70 75 87 83 78 66 57 42 54 67 54 49 41 38 42 51 48 35 37 36 44 52 62 57 57 54 45 45 49
26 22 26 26 24 26 22 26 33 34 37 42 31 30 31 66 55 55 75 76 63 54 44 53 66 71 62 51 41 42 48 52 43 35 34 36 52 62 59 62 61 60 48 44
27 26 21 19 21 20 28 37 51 46 50 52 30 35 30 26 39 38 61 69 57 50 48 48 55 67 70 62 52 44 46 51 50 40 33 35 50 56 57 59 65 64 60 46
37 37 26 22 23 23 34 38 60 48 52 46 29 33 30 28 29 24 26 47 51 53 45 42 43 52 61 65 60 51 46 50 54 45 37 37 46 59 58 60 68 61 60 47
42 35 22 21 20 22 29 38 34 48 46 44 38 33 25 29 38 45 48 48 48 44 43 40 45 47 56 63 55 56 51 48 58 60 42 35 38 49 62 65 70 64 58 58
30 32 25 20 20 22 29 33 42 61 58 51 48 40 34 30 31 36 57 51 39 37 38 39 42 46 54 57 58 57 62 51 56 64 50 39 27 45 64 65 69 64 62 67
31 31 24 21 26 29 32 38 46 51 58 56 51 46 33 32 32 35 35 34 37 35 35 36 34 43 50 54 56 55 66 61 55 64 60 45 28 46 62 63 66 63 64 64
29 40 33 27 23 24 32 37 40 59 44 59 53 44 28 31 31 29 26 23 28 27 29 32 34 44 47 44 49 50 64 65 60 62 66 49 36 46 60 64 66 62 67 69
34 40 41 35 28 25 25 32 41 49 52 64 61 49 27 27 26 21 21 20 26 33 36 38 39 39 41 44 44 47 58 62 62 63 68 59 44 47 61 64 64 65 73 73
25 44 34 31 30 35 28 29 43 42 56 50 51 34 27 26 28 27 22 18 18 29 35 39 42 38 40 39 39 47 54 62 66 65 69 72 55 48 58 60 60 68 74 76
38 40 37 35 28 34 29 30 38 35 36 40 33 39 28 27 30 38 31 23 20 27 33 30 29 28 32 33 37 48 54 61 68 69 71 75 70 57 57 61 64 71 75 78
41 46 36 37 32 30 28 31 34 33 34 32 30 32 43 49 49 50 49 47 43 39 37 38 33 36 36 40 36 44 55 59 71 76 76 78 73 66 62 65 70 72 78 82
41 52 48 46 38 33 39 36 29 26 27 28 34 31 53 53 58 57 54 50 48 44 44 44 40 39 42 40 42 43 51 63 72 76 76 77 74 68 69 70 75 78 81 86
53 56 57 60 42 46 35 32 28 42 58 60 61 57 55 54 53 53 54 52 45 40 35 35 39 42 40 44 46 51 61 68 72 76 77 78 74 73 75 76 81 84 86 88
56 69 80 73 60 49 42 37 49 36 58 58 60 57 54 52 54 58 52 54 52 44 38 30 26 29 41 47 54 57 66 73 76 77 79 77 73 77 80 79 80 85 88 91
56 66 66 81 68 68 53 37 31 30 54 61 59 62 60 48 57 72 50 52 51 45 40 33 26 27 40 48 50 53 56 63 72 74 76 77 76 81 81 79 80 87 91 95
63 68 74 78 67 57 46 53 41 40 50 63 58 58 57 69 60 42 36 46 53 52 46 45 46 50 50 51 48 50 52 57 63 71 78 82 82 81 82 83 88 91 96 100
58 76 83 79 74 59 50 53 40 54 62 56 54 52 48 43 37 35 32 32 44 51 52 52 58 57 55 54 52 52 54 58 60 64 76 85 86 88 89 92 94 99 100 99
52 53 64 60 65 64 63 65 60 56 56 56 51 47 43 37 35 37 37 33 27 37 51 53 52 60 58 59 56 56 58 58 61 67 80 89 93 93 95 98 100 100 100 95
44 42 65 64 54 54 33 38 50 55 50 51 47 41 39 36 36 36 35 33 29 23 28 46 54 54 54 54 52 53 56 56 58 64 77 85 92 96 99 100 100 100 98 94
47 44 51 54 43 33 31 32 30 31 35 32 29 29 28 29 29 29 31 32 32 29 24 21 32 50 55 57 58 57 57 58 59 65 73 84 90 96 100 100 95 95 97 94
45 46 60 60 40 38 34 29 26 25 26 26 25 25 26 25 24 24 24 25 24 24 22 20 21 32 49 52 58 58 58 57 58 64 72 73 81 89 94 97 96 96 90 84
Wind_Speed
5 4 6 8 6 5 3 2 4 7 3 2 6 3 13 22 20 20 28 29 37 36 29 30 34 35 37 31 27 23 26 27 26 26 29 26 23 19 18 18 19 18 17 15
1 8 8 6 7 4 4 2 8 9 5 6 5 10 7 15 18 30 32 34 38 34 30 30 31 32 38 36 31 26 26 28 27 26 26 25 22 20 17 19 20 19 19 16
8 5 9 6 4 4 4 5 7 10 1 3 3 6 3 2 6 20 33 34 36 32 25 29 30 33 38 40 35 30 27 27 29 27 26 24 22 22 21 21 22 21 20 17
7 7 7 4 7 7 6 10 12 8 4 3 2 3 2 4 6 17 28 31 38 33 28 29 31 34 38 41 37 33 28 27 28 29 28 28 29 30 27 20 20 23 21 19
8 8 6 5 13 6 10 3 10 5 4 4 1 3 5 3 7 15 22 34 40 39 32 33 32 32 34 38 40 36 30 30 29 30 29 29 30 29 24 20 21 22 22 20
9 2 7 9 6 9 4 3 6 4 3 1 3 5 5 5 8 10 17 28 40 41 36 32 33 30 33 36 39 38 34 30 29 30 31 32 32 30 26 24 24 22 23 22
2 4 3 5 2 1 3 5 1 2 3 6 4 3 8 7 8 8 20 33 40 41 37 34 36 37 35 36 37 41 39 34 30 32 34 34 33 31 28 26 25 25 24 24
6 6 9 4 8 7 6 8 6 6 3 5 3 4 5 6 10 11 15 35 38 37 38 36 38 41 39 38 35 39 42 39 35 34 35 35 35 33 30 28 26 26 24 23
7 6 4 6 6 8 4 3 4 7 3 2 3 6 6 5 7 4 15 21 32 36 38 39 38 43 43 39 36 37 42 45 42 35 36 37 38 36 34 30 28 25 23 21
7 3 5 5 6 3 8 7 3 3 5 4 5 4 5 3 3 3 6 21 28 32 34 37 38 42 45 45 36 33 39 46 45 35 38 38 39 38 35 32 32 29 25 22
7 5 5 4 5 8 3 3 5 5 4 7 2 6 7 10 9 9 14 22 25 27 29 33 34 39 40 45 42 37 37 46 49 39 38 39 39 39 37 34 33 31 27 27
11 7 8 9 5 4 6 9 8 6 5 2 4 7 4 9 11 14 15 21 22 25 26 26 25 32 38 40 45 43 40 43 47 43 37 40 39 40 38 38 38 33 30 32
8 4 2 7 4 2 5 5 4 5 4 8 6 5 2 5 5 10 17 17 16 25 26 25 23 27 35 38 38 41 43 42 44 44 40 41 41 41 39 41 38 33 32 35
16 5 9 13 5 5 4 5 6 6 5 6 6 5 4 6 7 9 14 17 15 21 26 27 27 28 31 32 33 38 42 43 42 45 42 38 41 43 40 38 38 34 31 33
6 7 6 5 9 7 6 7 8 6 5 7 7 9 8 4 5 6 6 8 11 18 26 29 30 27 29 28 30 35 39 41 42 44 43 41 39 41 41 40 37 34 33 34
1 2 3 2 5 6 4 7 8 5 4 3 4 4 3 7 11 13 14 14 11 12 23 31 30 31 30 31 27 30 35 37 40 42 43 40 38 40 43 41 40 36 35 35
3 5 3 4 4 6 2 7 5 4 3 6 5 6 4 5 9 13 14 15 14 12 11 23 31 33 31 30 30 28 31 32 34 38 41 39 36 40 42 40 39 36 33 34
5 5 3 4 2 3 6 1 5 7 4 5 6 2 2 1 9 20 19 16 16 16 14 15 24 31 35 31 31 28 30 30 32 35 37 37 38 39 40 39 37 34 33 35
3 5 3 5 4 4 2 4 7 5 4 1 4 0 4 5 3 6 20 17 17 16 17 17 22 24 30 33 27 26 28 28 30 31 34 35 37 36 37 38 34 33 34 34
5 7 4 3 5 7 8 1 3 6 3 6 8 3 5 4 3 3 18 20 18 16 15 14 14 19 21 23 22 19 20 22 26 29 32 34 35 33 34 34 33 34 35 33
2 3 5 3 3 4 5 5 1 6 5 13 14 12 6 4 5 6 13 19 19 18 18 18 16 12 10 14 10 14 14 18 22 26 31 32 32 32 33 34 35 36 35 32
6 6 3 2 3 5 2 2 6 8 19 20 15 13 14 11 7 7 11 16 20 22 19 18 15 7 6 11 9 10 11 15 17 19 25 30 31 32 33 35 36 37 34 28
3 3 5 4 4 2 6 13 21 20 22 13 14 12 12 11 9 8 11 14 18 20 19 14 13 8 4 3 7 11 14 14 18 17 24 26 28 30 32 35 38 37 33 29
2 2 3 4 4 5 17 22 16 15 17 15 14 12 11 9 6 7 9 12 15 16 17 15 8 6 6 9 9 14 17 15 14 17 24 24 27 30 31 33 34 34 34 33
1 3 5 4 5 10 16 16 20 20 18 16 13 10 8 5 5 6 9 12 15 16 16 16 14 11 12 16 18 19 19 18 18 19 23 26 28 30 31 32 32 34 33 32
2 4 3 4 6 10 7 9 9 11 10 8 6 5 4 3 4 6 7 9 12 17 19 18 17 16 16 17 22 24 24 22 21 24 28 25 28 31 33 33 33 34 31 29
Wind_Direction
173 133 199 210 185 170 164 208 286 264 238 178 250 288 186 184 176 172 186 194 205 216 217 219 230 221 213 211 208 205 201 202 199 195 194 197 205 211 214 217 213 213 218 221
104 212 210 204 157 195 194 239 270 293 223 168 301 289 192 183 190 184 184 200 210 219 220 236 225 221 216 213 210 207 206 209 207 207 203 210 216 220 223 213 211 215 221 222
199 206 180 177 204 198 212 200 258 234 328 46 44 323 82 46 152 186 200 207 206 211 235 223 218 219 216 212 212 211 212 213 211 208 210 215 218 218 215 210 210 212 220 227
223 216 195 177 229 175 261 211 233 246 148 201 164 261 305 189 178 198 207 211 213 223 232 223 218 218 218 215 214 215 214 215 215 212 214 218 217 214 215 216 213 214 221 227
228 171 174 185 232 149 236 190 206 196 150 119 280 76 263 139 221 215 209 215 214 225 227 222 224 225 223 219 217 216 217 216 214 216 220 217 219 222 222 216 216 217 219 226
216 191 154 202 236 175 232 79 43 44 68 357 196 130 282 212 210 202 209 217 217 224 225 226 230 232 227 225 222 219 218 218 218 219 220 221 221 222 220 219 218 219 223 227
356 251 218 203 266 110 114 92 328 336 349 228 168 105 236 254 237 183 196 208 216 220 223 226 228 231 232 227 224 220 220 221 224 220 222 223 223 225 226 224 224 223 227 229
174 275 193 183 185 193 190 164 155 196 210 257 328 225 244 289 311 227 235 214 213 218 221 230 231 233 237 233 230 223 224 224 226 220 224 224 223 225 227 227 230 233 240 238
164 241 278 175 176 148 204 172 189 106 359 50 241 290 314 350 29 90 165 187 206 216 223 227 230 231 237 236 234 233 230 228 226 224 225 224 224 224 225 227 232 239 241 238
200 178 213 233 145 211 162 167 90 3 138 209 290 280 225 243 204 157 175 196 207 216 222 226 233 237 240 240 237 238 235 231 229 227 229 227 226 223 227 230 232 234 235 236
152 135 261 108 185 181 142 153 60 121 142 183 178 261 215 195 197 200 209 209 211 214 218 224 231 238 242 243 242 241 236 233 233 231 233 230 227 224 227 229 233 234 233 239
188 163 219 214 219 204 178 186 165 155 206 170 171 249 252 212 193 201 234 240 219 214 218 222 230 237 237 241 244 245 236 236 235 237 235 233 230 226 228 228 232 234 235 234
168 197 159 329 352 349 199 182 129 108 92 180 160 251 222 205 263 231 254 276 250 212 213 216 223 233 234 239 241 243 240 239 235 235 236 232 232 229 232 230 233 234 234 232
163 145 181 221 200 163 193 185 159 143 138 173 203 209 276 237 218 237 267 279 272 225 214 217 224 230 232 237 240 243 244 241 239 233 234 236 232 231 233 232 235 236 232 232
132 173 159 197 183 173 189 172 171 169 178 165 206 192 226 273 316 12 335 300 282 252 229 228 231 232 232 233 238 240 243 245 240 235 234 236 232 232 233 232 234 237 234 231
34 178 132 108 146 169 160 184 171 170 160 225 166 216 157 105 93 52 30 19 358 284 257 242 238 236 236 236 241 241 240 242 242 238 236 233 231 231 230 233 235 236 232 230
125 132 95 192 152 135 294 203 176 172 117 145 162 206 153 149 89 60 29 17 3 352 288 256 251 247 244 244 244 246 244 241 239 237 237 234 232 228 228 232 232 233 233 230
138 104 84 161 85 200 250 183 184 126 86 100 95 132 247 173 128 58 31 11 355 342 324 285 262 254 249 245 243 246 246 241 237 236 237 234 230 228 227 228 230 230 230 228
139 131 120 146 183 276 336 176 143 155 205 167 136 10 303 329 209 211 16 12 357 343 334 305 285 269 249 244 237 243 244 243 240 238 236 234 232 230 226 225 227 227 226 222
62 71 119 135 157 198 216 231 188 105 215 178 136 78 10 39 113 283 12 15 5 353 350 331 302 281 253 231 223 231 241 244 241 242 239 236 234 234 230 228 228 224 222 223
85 43 141 137 178 280 248 273 262 151 218 149 135 120 130 97 120 40 24 25 19 11 9 9 13 353 274 209 221 233 239 248 253 251 244 238 235 234 232 229 225 222 219 218
155 155 173 102 69 246 197 236 164 146 126 138 143 135 121 114 87 51 32 28 25 21 17 23 23 8 195 204 223 245 253 255 260 262 256 242 236 233 228 225 222 218 216 216
90 169 170 168 187 340 80 111 122 132 138 149 143 133 125 113 84 42 20 14 20 19 19 17 25 29 9 292 288 278 268 270 270 258 248 244 238 233 227 222 219 216 216 219
41 39 89 102 23 52 83 87 110 125 115 118 124 127 126 100 63 25 2 357 1 7 8 9 348 307 284 291 290 272 267 275 274 269 254 240 235 231 226 222 222 222 223 223
206 29 105 75 106 78 59 90 105 105 108 107 104 98 86 62 29 358 338 327 326 329 333 335 335 332 296 280 272 267 264 270 274 263 249 246 237 231 227 226 229 231 235 243
4 146 142 163 129 115 119 88 93 103 96 99 105 101 76 20 348 326 320 317 310 306 308 305 300 304 302 303 279 266 259 265 268 263 251 245 245 236 229 228 228 231 237 239